#timestamp,LO_Frequency,Hit 
1503345615.0,286047001.7,N
1503345615.9,286047001.7,N
1503345635.7,286047000.6,N
1503345655.6,286047002.7,N
1503345675.4,286047001.9,N
1503345695.2,286047004.4,N
1503345715.1,286047003.1,N
1503345716.0,286047003.1,N
1503345735.8,286047004.2,N
1503345755.6,286047001.9,N
1503345775.5,286047002.0,N
1503345795.3,286047003.2,N
1503345815.1,286047003.4,N
1503345835.9,286047003.1,N
1503345855.7,286047005.2,P
1503345875.5,286047003.3,N
1503345895.4,286047003.6,P
1503345915.2,286047004.1,P
1503345935.0,286047002.3,P
1503345935.9,286047002.3,N
1503345955.8,286047000.8,N
1503345975.6,286047000.5,N
1503345995.4,286047000.7,N
1503346015.3,286047002.0,N
1503346035.1,286047003.2,N
1503346036.0,286047003.2,N
1503346055.8,286047003.0,N
1503346075.7,286047003.2,N
1503346095.5,286047001.4,N
1503346115.3,286046999.7,N
1503346135.2,286047003.7,N
1503346155.9,286047005.6,P
1503346175.7,286047004.2,N
1503346195.6,286047003.3,N
1503346215.4,286047003.8,P
1503346235.2,286046999.9,P
1503346255.1,286047000.6,N
1503346256.0,286047000.6,N
1503346275.8,286046998.2,N
1503346295.6,286046998.8,N
1503346315.5,286046999.1,N
1503346335.3,286046998.8,N
1503346355.1,286046996.6,N
1503346375.8,286047001.1,N
1503346395.7,286047001.0,N
1503346415.5,286046998.1,N
1503346435.3,286046998.3,N
1503346455.2,286047000.4,N
1503346475.9,286047000.4,N
1503346495.7,286047001.9,N
1503346515.6,286047002.5,N
1503346535.4,286047001.4,N
1503346555.2,286047003.5,N
1503346575.1,286047001.6,N
1503346576.0,286047001.6,N
1503346595.8,286047001.4,N
1503346615.6,286047001.5,N
1503346635.5,286047003.6,N
1503346655.5,286047003.9,N
1503346675.3,286047003.7,N
1503346695.2,286047003.5,N
1503346715.9,286047006.0,N
1503346735.7,286047005.5,N
1503346755.6,286047003.4,N
1503346775.4,286047003.8,N
1503346795.2,286047004.2,N
1503346815.0,286047004.0,N
1503346816.0,286047004.0,N
1503346835.8,286047003.6,N
1503346855.6,286047003.1,N
1503346875.4,286047005.7,N
1503346895.3,286047006.6,N
1503346915.1,286047006.7,N
1503346935.9,286047006.7,P
1503346955.7,286047005.8,P
1503346975.5,286047004.6,N
1503346995.4,286047006.5,P
1503347015.2,286047003.9,P
1503347035.0,286047003.6,P
1503347035.9,286047003.6,P
1503347055.8,286046996.7,P
1503347075.6,286046996.7,N
1503347095.4,286046995.4,N
1503347115.3,286046995.1,N
1503347135.1,286046995.3,N
1503347136.0,286046995.3,N
1503347155.8,286046999.0,N
1503347175.7,286046999.2,N
1503347195.5,286046997.9,N
1503347215.3,286046994.9,N
1503347235.1,286046999.2,N
1503347255.9,286046999.6,N
1503347275.7,286046999.6,N
1503347295.5,286046998.3,N
1503347315.4,286046998.1,N
1503347335.2,286047001.1,N
1503347355.0,286046998.4,N
1503347355.9,286046998.4,N
1503347375.8,286046998.8,N
1503347395.6,286046998.6,N
1503347415.4,286046999.9,N
1503347435.3,286047002.6,N
1503347455.1,286047001.5,N
1503347456.0,286047001.5,N
1503347475.8,286047002.2,N
1503347495.7,286047001.8,N
1503347515.5,286047002.6,N
1503347535.3,286047001.5,N
1503347555.1,286047002.1,N
1503347575.9,286047000.1,N
1503347595.7,286047002.4,N
1503347615.5,286047001.5,N
1503347635.4,286047002.1,N
1503347655.2,286047004.1,N
1503347675.0,286047004.2,N
1503347675.9,286047004.2,N
1503347695.8,286047003.5,N
1503347715.6,286047003.8,N
1503347735.4,286047003.1,N
1503347755.3,286047007.6,P
1503347775.1,286047005.7,N
1503347795.8,286047005.6,N
1503347815.7,286047003.1,N
1503347835.5,286047003.1,N
1503347855.3,286047005.8,N
1503347875.2,286047005.5,N
1503347895.9,286047004.8,N
1503347915.7,286047003.0,N
1503347935.6,286047005.5,N
1503347955.4,286047006.4,P
1503347975.2,286047002.7,N
1503347995.1,286047001.4,N
1503347996.0,286047001.4,N
1503348015.8,286047003.7,N
1503348035.6,286047003.3,N
1503348055.5,286047005.5,P
1503348075.3,286047002.3,N
1503348095.1,286046999.7,N
1503348115.9,286047001.6,N
1503348135.7,286046999.8,N
1503348155.5,286047002.2,N
1503348175.4,286047001.5,N
1503348195.2,286047004.2,N
1503348215.0,286047003.9,N
1503348215.9,286047003.9,N
1503348235.8,286047004.1,N
1503348255.6,286047004.0,N
1503348275.4,286047005.3,P
1503348295.3,286047002.6,N
1503348315.1,286047002.2,N
1503348316.0,286047002.2,N
1503348335.8,286047002.4,N
1503348355.7,286046999.7,N
1503348375.5,286047001.8,N
1503348395.3,286047001.3,N
1503348415.1,286047003.0,N
1503348435.9,286047005.4,P
1503348455.7,286047002.0,N
1503348475.5,286047002.7,N
1503348495.4,286047000.4,N
1503348515.3,286047001.1,N
1503348535.1,286047001.5,N
1503348536.0,286047001.5,N
1503348555.8,286047003.4,N
1503348575.7,286047003.4,N
1503348595.5,286047002.9,N
1503348615.3,286047002.9,N
1503348635.2,286047004.7,P
1503348655.9,286047002.2,N
1503348675.6,286047003.9,P
1503348695.4,286047003.1,N
1503348715.2,286047003.5,P
1503348735.1,286047000.6,P
1503348736.0,286047000.6,N
1503348755.8,286047000.4,N
1503348775.6,286046999.7,N
1503348795.5,286046999.9,N
1503348815.3,286046999.8,N
1503348835.1,286046999.8,N
1503348855.9,286047001.6,N
1503348875.7,286047002.3,N
1503348895.5,286047001.7,N
1503348915.4,286047005.1,P
1503348935.2,286047005.6,N
1503348955.0,286047004.2,N
1503348955.9,286047004.2,N
1503348975.8,286047004.1,N
1503348995.6,286047002.5,N
1503349015.4,286047002.9,N
1503349035.2,286047002.9,N
1503349055.1,286047002.9,N
1503349056.0,286047002.9,N
1503349075.8,286047005.9,P
1503349095.7,286047000.5,N
1503349115.5,286047002.7,N
1503349135.3,286047004.4,N
1503349155.1,286047003.2,N
1503349175.9,286047004.4,N
1503349195.7,286047002.0,N
